TimeEST,TemperatureF,Dew PointF,Humidity,Sea Level PressureIn,VisibilityMPH,Wind Direction,Wind SpeedMPH,Gust SpeedMPH,PrecipitationIn,Events,Conditions,WindDirDegrees,DateUTC
12:53 AM,37.9,35.1,89,30.26,10.0,Calm,Calm,-,N/A,,Clear,0,2013-01-07 05:53:00
1:53 AM,36.0,34.0,93,30.26,10.0,West,4.6,-,N/A,,Clear,280,2013-01-07 06:53:00
2:53 AM,32.0,30.0,92,30.26,10.0,NNW,4.6,-,N/A,,Clear,330,2013-01-07 07:53:00
3:53 AM,33.1,32.0,96,30.27,10.0,Calm,Calm,-,N/A,,Clear,0,2013-01-07 08:53:00
4:53 AM,32.0,30.9,96,30.28,9.0,Calm,Calm,-,N/A,,Clear,0,2013-01-07 09:53:00
5:53 AM,30.0,28.9,96,30.28,7.0,North,4.6,-,N/A,,Clear,360,2013-01-07 10:53:00
6:53 AM,32.0,30.9,96,30.30,8.0,Calm,Calm,-,N/A,,Clear,0,2013-01-07 11:53:00
7:53 AM,30.9,28.9,92,30.32,5.0,North,3.5,-,N/A,,Clear,360,2013-01-07 12:53:00
8:53 AM,37.9,35.1,89,30.35,10.0,NNE,3.5,-,N/A,,Clear,20,2013-01-07 13:53:00
9:53 AM,45.0,36.0,71,30.38,10.0,NE,6.9,-,N/A,,Clear,40,2013-01-07 14:53:00
10:53 AM,50.0,35.1,57,30.38,10.0,ENE,5.8,-,N/A,,Clear,70,2013-01-07 15:53:00
11:53 AM,52.0,34.0,50,30.36,10.0,ENE,11.5,-,N/A,,Clear,70,2013-01-07 16:53:00
12:53 PM,53.1,33.1,47,30.32,10.0,ESE,11.5,-,N/A,,Clear,110,2013-01-07 17:53:00
1:53 PM,53.6,33.8,47,30.31,10.0,East,4.6,-,N/A,,Clear,100,2013-01-07 18:53:00
2:53 PM,55.0,33.1,43,30.32,10.0,ESE,3.5,-,N/A,,Clear,110,2013-01-07 19:53:00
3:53 PM,55.9,34.0,44,30.32,10.0,ESE,6.9,-,N/A,,Clear,110,2013-01-07 20:53:00
4:53 PM,54.0,34.0,47,30.32,10.0,East,8.1,-,N/A,,Clear,100,2013-01-07 21:53:00
5:53 PM,46.4,33.8,62,30.31,10.0,ENE,6.9,-,N/A,,Clear,70,2013-01-07 22:53:00
6:53 PM,44.1,32.0,63,30.33,10.0,Calm,Calm,-,N/A,,Clear,0,2013-01-07 23:53:00
7:53 PM,41.0,34.0,76,30.34,10.0,Calm,Calm,-,N/A,,Clear,0,2013-01-08 00:53:00
8:53 PM,37.0,32.0,82,30.34,10.0,NE,3.5,-,N/A,,Clear,50,2013-01-08 01:53:00
9:53 PM,36.0,30.9,82,30.35,10.0,Calm,Calm,-,N/A,,Clear,0,2013-01-08 02:53:00
10:53 PM,33.1,30.0,89,30.35,10.0,Calm,Calm,-,N/A,,Scattered Clouds,0,2013-01-08 03:53:00
11:53 PM,37.0,34.0,89,30.35,8.0,Calm,Calm,-,N/A,,Overcast,0,2013-01-08 04:53:00